2023/04/21 00:00:00, 0.1,14.0
2023/04/21 00:10:00, 3.0,13.8
2023/04/21 00:20:00, 6.4,13.7
2023/04/21 00:30:00, 0.2,13.4
2023/04/21 00:40:00, 0.1,13.6
2023/04/21 00:50:00,15.1,13.7
2023/04/21 01:00:00, 0.2,13.5
2023/04/21 01:10:00, 0.1,13.3
2023/04/21 01:20:00, 0.0,13.4
2023/04/21 01:30:00, 0.1,13.3
2023/04/21 01:40:00, 0.1,13.0
2023/04/21 01:50:00, 0.0,13.5
2023/04/21 02:00:00, 0.5,13.5
2023/04/21 02:10:00, 0.2,13.3
2023/04/21 02:20:00, 0.2,13.4
2023/04/21 02:30:00, 1.5,13.3
2023/04/21 02:40:00, 1.7,13.2
2023/04/21 02:50:00, 0.3,13.0
2023/04/21 03:00:00, 0.2,12.8
2023/04/21 03:10:00, 0.2,12.9
2023/04/21 03:20:00, 1.2,13.0
2023/04/21 03:30:00,13.8,12.5
2023/04/21 03:40:00, 0.2,12.6
2023/04/21 03:50:00, 0.4,12.8
2023/04/21 04:00:00, 0.3,12.7
2023/04/21 04:10:00, 0.8,12.7
2023/04/21 04:20:00, 0.8,12.8
2023/04/21 04:30:00, 1.2,12.5
2023/04/21 04:40:00, 0.6,12.8
2023/04/21 04:50:00, 0.5,12.7
2023/04/21 05:00:00, 0.7,12.7
2023/04/21 05:10:00, 0.1,12.7
2023/04/21 05:20:00, 0.1,12.5
2023/04/21 05:30:00, 0.0,12.4
2023/04/21 05:40:00, 1.1,12.4
2023/04/21 05:50:00, 0.1,12.6
2023/04/21 06:00:00, 0.5,12.5
2023/04/21 06:10:00, 0.6,12.8
2023/04/21 06:20:00, 0.6,13.1
2023/04/21 06:30:00, 2.6,13.2
2023/04/21 06:40:00, 1.2,13.2
2023/04/21 06:50:00, 0.2,13.4
2023/04/21 07:00:00, 0.1,13.9
2023/04/21 07:10:00, 0.9,14.1
2023/04/21 07:20:00, 0.3,14.6
2023/04/21 07:30:00, 0.6,15.0
2023/04/21 07:40:00, 0.9,15.3
2023/04/21 07:50:00, 1.9,15.8
2023/04/21 08:00:00, 2.7,16.2
2023/04/21 08:10:00, 1.3,17.2
2023/04/21 08:20:00, 0.5,17.7
2023/04/21 08:30:00, 0.4,17.8
2023/04/21 08:40:00, 1.8,18.0
2023/04/21 08:50:00, 2.6,17.9
2023/04/21 09:00:00, 9.3,18.0
2023/04/21 09:10:00, 3.8,18.0
2023/04/21 09:20:00, 5.6,17.2
2023/04/21 09:30:00,10.2,17.2
2023/04/21 09:40:00, 6.0,17.0
2023/04/21 09:50:00, 6.3,17.3
2023/04/21 10:00:00,14.1,17.4
2023/04/21 10:10:00,28.2,17.8
2023/04/21 10:20:00,---,17.4
2023/04/21 10:30:00, 3.6,17.3
2023/04/21 10:40:00, 4.4,15.9
2023/04/21 10:50:00, 9.3,15.7
2023/04/21 11:00:00, 9.3,15.3
2023/04/21 11:10:00, 8.2,15.0
2023/04/21 11:20:00, 2.7,14.7
2023/04/21 11:30:00, 0.8,14.8
2023/04/21 11:40:00,15.9,14.5
2023/04/21 11:50:00,14.0,14.3
2023/04/21 12:00:00, 3.8,13.9
2023/04/21 12:10:00,15.6,13.8
2023/04/21 12:20:00,---,13.7
2023/04/21 12:30:00, 9.0,13.6
2023/04/21 12:40:00,15.4,13.8
2023/04/21 12:50:00,13.9,13.9
2023/04/21 13:00:00, 7.8,13.9
2023/04/21 13:10:00, 4.7,13.7
2023/04/21 13:20:00, 5.9,13.7
2023/04/21 13:30:00, 6.8,13.8
2023/04/21 13:40:00, 5.4,13.8
2023/04/21 13:50:00, 4.6,13.7
2023/04/21 14:00:00, 9.0,13.5
2023/04/21 14:10:00,20.9,13.6
2023/04/21 14:20:00, 8.9,13.4
2023/04/21 14:30:00, 9.5,13.4
2023/04/21 14:40:00, 9.7,13.1
2023/04/21 14:50:00, 9.0,12.8
2023/04/21 15:00:00, 9.9,12.8
2023/04/21 15:10:00, 8.6,12.6
2023/04/21 15:20:00, 5.0,12.3
2023/04/21 15:30:00, 8.1,12.4
2023/04/21 15:40:00, 6.5,12.0
2023/04/21 15:50:00, 4.3,12.0
2023/04/21 16:00:00, 2.7,12.0
2023/04/21 16:10:00, 4.1,11.9
2023/04/21 16:20:00,30.2,12.2
2023/04/21 16:30:00, 2.8,12.0
2023/04/21 16:40:00, 1.3,11.9
2023/04/21 16:50:00, 8.0,11.7
2023/04/21 17:00:00,18.9,12.0
2023/04/21 17:10:00,25.4,12.1
2023/04/21 17:20:00,11.6,12.1
2023/04/21 17:30:00, 4.0,12.3
2023/04/21 17:40:00, 3.5,12.2
2023/04/21 17:50:00, 3.7,12.1
2023/04/21 18:00:00, 5.6,12.0
2023/04/21 18:10:00, 7.1,12.2
2023/04/21 18:20:00, 5.6,11.9
2023/04/21 18:30:00, 2.5,11.8
2023/04/21 18:40:00, 0.8,11.4
2023/04/21 18:50:00, 0.2,11.1
2023/04/21 19:00:00, 0.5,11.1
2023/04/21 19:10:00, 0.5,10.9
2023/04/21 19:20:00, 2.1,10.9
2023/04/21 19:30:00, 4.7,10.7
2023/04/21 19:40:00, 0.8,10.6
2023/04/21 19:50:00, 0.4,10.5
2023/04/21 20:00:00, 3.4,10.6
2023/04/21 20:10:00, 0.5,10.5
2023/04/21 20:20:00, 0.5,10.4
2023/04/21 20:30:00, 1.0,10.5
2023/04/21 20:40:00, 1.8,10.5
2023/04/21 20:50:00, 1.2,10.5
2023/04/21 21:00:00, 3.4,10.5
2023/04/21 21:10:00, 2.7,10.5
2023/04/21 21:20:00, 6.0,10.2
2023/04/21 21:30:00, 4.8,10.2
2023/04/21 21:40:00, 6.1,10.2
2023/04/21 21:50:00, 8.9,10.3
2023/04/21 22:00:00, 7.7,10.2
2023/04/21 22:10:00, 4.6,10.0
2023/04/21 22:20:00, 3.9,10.1
2023/04/21 22:30:00, 4.6, 9.9
2023/04/21 22:40:00, 3.3, 9.7
2023/04/21 22:50:00,10.0, 9.7
2023/04/21 23:00:00, 8.3,10.0
2023/04/21 23:10:00,11.3, 9.6
2023/04/21 23:20:00, 3.8, 9.7
2023/04/21 23:30:00, 1.6, 9.6
2023/04/21 23:40:00, 0.2, 9.4
2023/04/21 23:50:00, 0.2, 9.1
